"Date","BrandLoyalties Consumer Goods Index"
"01/02/2008",10.0000
"01/03/2008",9.6278
"01/04/2008",9.2277
"01/07/2008",9.1647
"01/08/2008",9.0297
"01/09/2008",9.0054
"01/10/2008",9.1636
"01/11/2008",8.8068
"01/14/2008",8.9160
"01/15/2008",8.6537
"01/16/2008",8.7204
"01/17/2008",8.6553
"01/18/2008",8.6192
"01/22/2008",8.7038
"01/23/2008",9.1999
"01/24/2008",9.2655
"01/25/2008",9.1408
"01/28/2008",9.3049
"01/29/2008",9.3864
"01/30/2008",9.2895
"01/31/2008",9.6161
"02/01/2008",9.6814
"02/04/2008",9.4809
"02/05/2008",9.1832
"02/06/2008",9.0958
"02/07/2008",9.3232
"02/08/2008",9.2958
"02/11/2008",9.3728
"02/12/2008",9.3884
"02/13/2008",9.5391
"02/14/2008",9.3558
"02/15/2008",9.3217
"02/19/2008",9.6343
"02/20/2008",9.7576
"02/21/2008",9.3135
"02/22/2008",9.3552
"02/25/2008",9.4282
"02/26/2008",9.5882
"02/27/2008",9.6275
"02/28/2008",9.4021
"02/29/2008",9.1061
"03/03/2008",9.0962
"03/04/2008",9.1061
"03/05/2008",9.1336
"03/06/2008",8.8507
"03/07/2008",8.7736
"03/10/2008",8.6584
"03/11/2008",8.9826
"03/12/2008",8.9817
"03/13/2008",9.0513
"03/14/2008",8.9050
"03/17/2008",8.7004
"03/18/2008",9.0771
"03/19/2008",8.9625
"03/20/2008",9.3558
"03/24/2008",9.6737
"03/25/2008",9.6168
"03/26/2008",9.4734
"03/27/2008",9.2987
"03/28/2008",9.0736
"03/31/2008",9.2133
"04/01/2008",9.6027
"04/02/2008",9.6115
"04/03/2008",9.6188
"04/04/2008",9.5694
"04/07/2008",9.5435
"04/08/2008",9.4965
"04/09/2008",9.2693
"04/10/2008",9.3973
"04/11/2008",9.1905
"04/14/2008",9.1945
"04/15/2008",9.2791
"04/16/2008",9.4939
"04/17/2008",9.4378
"04/18/2008",9.6017
"04/21/2008",9.6131
"04/22/2008",9.3284
"04/23/2008",9.4036
"04/24/2008",9.4840
"04/25/2008",9.5774
"04/28/2008",9.5522
"04/29/2008",9.6621
"04/30/2008",9.6107
"05/01/2008",9.8252
"05/02/2008",9.7433
"05/05/2008",9.6472
"05/06/2008",9.6590
"05/07/2008",9.4918
"05/08/2008",9.4874
"05/09/2008",9.4445
"05/12/2008",9.6453
"05/13/2008",9.7021
"05/14/2008",9.7485
"05/15/2008",9.8335
"05/16/2008",9.7573
"05/19/2008",9.7224
"05/20/2008",9.6049
"05/21/2008",9.4180
"05/22/2008",9.5558
"05/23/2008",9.4015
"05/27/2008",10.4477
"05/28/2008",10.6271
"05/29/2008",9.8185
"05/30/2008",9.8093
"06/02/2008",9.6480
"06/03/2008",9.6804
"06/04/2008",9.7635
"06/05/2008",9.9511
"06/06/2008",9.5331
"06/09/2008",9.4882
"06/10/2008",9.5806
"06/11/2008",9.3550
"06/12/2008",9.4223
"06/13/2008",9.5861
"06/16/2008",9.5850
"06/17/2008",9.4114
"06/18/2008",9.2493
"06/19/2008",9.3726
"06/20/2008",9.1911
"06/23/2008",9.0055
"06/24/2008",9.0172
"06/25/2008",9.2075
"06/26/2008",8.8475
"06/27/2008",8.7072
"06/30/2008",8.6247
"07/01/2008",8.6132
"07/02/2008",8.4935
"07/03/2008",8.4398
"07/07/2008",9.0729
"07/08/2008",8.7369
"07/09/2008",8.4911
"07/10/2008",8.2750
"07/11/2008",8.2555
"07/14/2008",8.0988
"07/15/2008",8.1386
"07/16/2008",8.5300
"07/17/2008",8.7552
"07/18/2008",8.6406
"07/21/2008",8.6155
"07/22/2008",8.9989
"07/23/2008",9.1870
"07/24/2008",8.9702
"07/25/2008",8.9365
"07/28/2008",8.7456
"07/29/2008",9.0476
"07/30/2008",9.0039
"07/31/2008",8.8538
"08/01/2008",8.9220
"08/04/2008",8.9152
"08/05/2008",9.3385
"08/06/2008",9.3856
"08/07/2008",9.2489
"08/08/2008",9.6362
"08/11/2008",9.9108
"08/12/2008",9.8275
"08/13/2008",9.6864
"08/14/2008",9.7787
"08/15/2008",9.8296
"08/18/2008",9.6868
"08/19/2008",9.4097
"08/20/2008",9.3546
"08/21/2008",9.3418
"08/22/2008",9.5568
"08/25/2008",9.3130
"08/26/2008",9.3095
"08/27/2008",9.3387
"08/28/2008",9.5647
"08/29/2008",9.4996
"09/02/2008",11.7038
"09/03/2008",10.1842
"09/04/2008",9.9630
"09/05/2008",9.6367
"09/08/2008",9.9168
"09/09/2008",9.7396
"09/10/2008",9.7039
"09/11/2008",9.8068
"09/12/2008",9.6847
"09/15/2008",9.4322
"09/16/2008",9.5387
"09/17/2008",9.1553
"09/18/2008",9.5782
"09/19/2008",9.7932
"09/22/2008",9.2313
"09/23/2008",9.1542
"09/24/2008",9.0623
"09/25/2008",9.2101
"09/26/2008",9.2901
"09/29/2008",8.8275
"09/30/2008",9.0587
"10/01/2008",9.0581
"10/02/2008",8.6446
"10/03/2008",8.3631
"10/06/2008",8.1426
"10/07/2008",7.7134
"10/08/2008",7.6290
"10/09/2008",7.1430
"10/10/2008",7.1815
"10/13/2008",7.7632
"10/14/2008",7.5045
"10/15/2008",6.8394
"10/16/2008",7.2028
"10/17/2008",7.2000
"10/20/2008",7.3615
"10/21/2008",7.0395
"10/22/2008",6.6665
"10/23/2008",6.5658
"10/24/2008",6.2715
"10/27/2008",5.9689
"10/28/2008",6.5335
"10/29/2008",6.5298
"10/30/2008",6.7994
"10/31/2008",6.9699
"11/03/2008",6.8671
"11/04/2008",7.0578
"11/05/2008",6.7796
"11/06/2008",6.5441
"11/07/2008",6.6285
"11/10/2008",6.4361
"11/11/2008",6.1955
"11/12/2008",5.8230
"11/13/2008",6.2607
"11/14/2008",5.9575
"11/17/2008",5.7756
"11/18/2008",5.8016
"11/19/2008",5.5073
"11/20/2008",5.2288
"11/21/2008",5.4671
"11/24/2008",5.8273
"11/25/2008",5.8952
"11/26/2008",6.2514
"11/28/2008",6.2942
"12/01/2008",5.7457
"12/02/2008",5.9518
"12/03/2008",6.1711
"12/04/2008",6.1560
"12/05/2008",6.3812
"12/08/2008",6.5888
"12/09/2008",6.3887
"12/10/2008",6.5072
"12/11/2008",6.2323
"12/12/2008",6.3748
"12/15/2008",6.2356
"12/16/2008",6.5246
"12/17/2008",6.5495
"12/18/2008",6.4514
"12/19/2008",6.4398
"12/22/2008",6.2478
"12/23/2008",6.1881
"12/24/2008",6.2151
"12/26/2008",7.2028
"12/29/2008",6.2178
"12/30/2008",6.4067
"12/31/2008",6.5666
"01/02/2009",6.8038
"01/05/2009",6.8227
"01/06/2009",6.9083
"01/07/2009",6.6463
"01/08/2009",6.6312
"01/09/2009",6.4534
"01/12/2009",6.2840
"01/13/2009",6.2567
"01/14/2009",6.0271
"01/15/2009",6.1191
"01/16/2009",6.2380
"01/20/2009",5.8733
"01/21/2009",6.0883
"01/22/2009",6.0495
"01/23/2009",6.0840
"01/26/2009",6.1369
"01/27/2009",6.2507
"01/28/2009",6.4448
"01/29/2009",6.2847
"01/30/2009",6.0449
"02/02/2009",6.0843
"02/03/2009",6.1640
"02/04/2009",6.1183
"02/05/2009",6.2731
"02/06/2009",6.4141
"02/09/2009",6.3569
"02/10/2009",6.0720
"02/11/2009",6.0919
"02/12/2009",6.1431
"02/13/2009",6.1284
"02/17/2009",6.0888
"02/18/2009",6.0546
"02/19/2009",5.8652
"02/20/2009",5.8574
"02/23/2009",5.7097
"02/24/2009",5.9602
"02/25/2009",5.9428
"02/26/2009",5.8131
"02/27/2009",5.8150
"03/02/2009",5.5639
"03/03/2009",5.5963
"03/04/2009",5.7655
"03/05/2009",5.5381
"03/06/2009",5.5794
"03/09/2009",5.5130
"03/10/2009",5.8768
"03/11/2009",5.9153
"03/12/2009",6.1937
"03/13/2009",6.2440
"03/16/2009",6.1595
"03/17/2009",6.3957
"03/18/2009",6.4874
"03/19/2009",6.4735
"03/20/2009",6.3321
"03/23/2009",6.6654
"03/24/2009",6.6100
"03/25/2009",6.6183
"03/26/2009",6.8704
"03/27/2009",6.7562
"03/30/2009",6.5990
"03/31/2009",6.6459
"04/01/2009",6.7717
"04/02/2009",7.1126
"04/03/2009",7.1968
"04/06/2009",7.1389
"04/07/2009",6.8934
"04/08/2009",7.1000
"04/09/2009",7.3892
"04/13/2009",7.4236
"04/14/2009",7.2822
"04/15/2009",7.2841
"04/16/2009",7.5160
"04/17/2009",7.7061
"04/20/2009",7.4005
"04/21/2009",7.5558
"04/22/2009",7.6952
"04/23/2009",7.6989
"04/24/2009",7.8551
"04/27/2009",7.7168
"04/28/2009",7.7334
"04/29/2009",7.8147
"04/30/2009",7.8264
"05/01/2009",7.8370
"05/04/2009",8.2308
"05/05/2009",8.3830
"05/06/2009",8.2962
"05/07/2009",8.1096
"05/08/2009",8.1505
"05/11/2009",8.0490
"05/12/2009",7.8799
"05/13/2009",7.5247
"05/14/2009",7.6179
"05/15/2009",7.5716
"05/18/2009",7.8574
"05/19/2009",7.8661
"05/20/2009",7.7862
"05/21/2009",7.6635
"05/22/2009",7.6038
"05/26/2009",8.7689
"05/27/2009",8.6364
"05/28/2009",7.7742
"05/29/2009",7.9230
"06/01/2009",8.2857
"06/02/2009",8.3150
"06/03/2009",8.2525
"06/04/2009",8.2263
"06/05/2009",8.2081
"06/08/2009",8.1408
"06/09/2009",8.1833
"06/10/2009",8.0957
"06/11/2009",7.9780
"06/12/2009",8.0694
"06/15/2009",7.8863
"06/16/2009",7.7218
"06/17/2009",7.7691
"06/18/2009",7.8624
"06/19/2009",7.9041
"06/22/2009",7.6890
"06/23/2009",7.5985
"06/24/2009",7.6467
"06/25/2009",7.8209
"06/26/2009",7.8354
"06/29/2009",7.8801
"06/30/2009",7.7993
"07/01/2009",7.9021
"07/02/2009",7.6694
"07/06/2009",7.6867
"07/07/2009",7.5361
"07/08/2009",7.5963
"07/09/2009",7.6221
"07/10/2009",7.6285
"07/13/2009",7.8003
"07/14/2009",7.8942
"07/15/2009",8.1022
"07/16/2009",8.1595
"07/17/2009",8.1176
"07/20/2009",8.2473
"07/21/2009",8.2536
"07/22/2009",8.4136
"07/23/2009",8.5927
"07/24/2009",8.6034
"07/27/2009",8.5950
"07/28/2009",8.6209
"07/29/2009",8.5429
"07/30/2009",8.6812
"07/31/2009",8.7211
"08/03/2009",8.8462
"08/04/2009",8.9119
"08/05/2009",8.7971
"08/06/2009",8.7624
"08/07/2009",8.9943
"08/10/2009",8.8986
"08/11/2009",8.8373
"08/12/2009",8.9365
"08/13/2009",9.0027
"08/14/2009",8.8888
"08/17/2009",8.6141
"08/18/2009",8.7618
"08/19/2009",8.8706
"08/20/2009",8.8889
"08/21/2009",8.9917
"08/24/2009",8.9366
"08/25/2009",9.0420
"08/26/2009",9.1001
"08/27/2009",9.1266
"08/28/2009",9.1145
"08/31/2009",9.0386
"09/01/2009",8.8244
"09/02/2009",8.8169
"09/03/2009",8.9200
"09/04/2009",9.0003
"09/08/2009",9.6355
"09/09/2009",9.2141
"09/10/2009",9.2817
"09/11/2009",9.2817
"09/14/2009",9.2869
"09/15/2009",9.3706
"09/16/2009",9.4871
"09/17/2009",9.5065
"09/18/2009",9.5775
"09/21/2009",9.5933
"09/22/2009",9.6719
"09/23/2009",9.5981
"09/24/2009",9.5249
"09/25/2009",9.4149
"09/28/2009",9.5215
"09/29/2009",9.5597
"09/30/2009",9.5530
"10/01/2009",9.3347
"10/02/2009",9.2531
"10/05/2009",9.4360
"10/06/2009",9.6271
"10/07/2009",9.6351
"10/08/2009",9.7123
"10/09/2009",9.7840
"10/12/2009",9.8146
"10/13/2009",9.8374
"10/14/2009",9.9370
"10/15/2009",9.9992
"10/16/2009",10.0025
"10/19/2009",10.0792
"10/20/2009",9.9857
"10/21/2009",9.8768
"10/22/2009",10.0268
"10/23/2009",9.9345
"10/26/2009",9.8466
"10/27/2009",9.7509
"10/28/2009",9.4658
"10/29/2009",9.6389
"10/30/2009",9.4346
"11/02/2009",9.5449
"11/03/2009",9.6026
"11/04/2009",9.5297
"11/05/2009",9.7237
"11/06/2009",9.7608
"11/09/2009",9.9569
"11/10/2009",9.9896
"11/11/2009",10.0617
"11/12/2009",9.9169
"11/13/2009",9.9920
"11/16/2009",10.1597
"11/17/2009",10.1777
"11/18/2009",10.1874
"11/19/2009",10.0207
"11/20/2009",9.9833
"11/23/2009",10.0822
"11/24/2009",10.0537
"11/25/2009",10.1073
"11/27/2009",9.9690
"11/30/2009",9.9613
"12/01/2009",10.0469
"12/02/2009",10.1182
"12/03/2009",10.0562
"12/04/2009",10.1291
"12/07/2009",10.1248
"12/08/2009",10.0480
"12/09/2009",10.0945
"12/10/2009",10.1551
"12/11/2009",10.2316
"12/14/2009",10.3834
"12/15/2009",10.3809
"12/16/2009",10.4184
"12/17/2009",10.3307
"12/18/2009",10.3599
"12/21/2009",10.4672
"12/22/2009",10.5581
"12/23/2009",10.6506
"12/24/2009",10.6841
"12/28/2009",10.6825
"12/29/2009",10.6702
"12/30/2009",10.6717
"12/31/2009",10.5656
"01/04/2010",13.1357
"01/05/2010",10.7526
"01/06/2010",10.7843
"01/07/2010",10.8710
"01/08/2010",10.8585
"01/11/2010",10.8392
"01/12/2010",10.6611
"01/13/2010",10.8130
"01/14/2010",10.8113
"01/15/2010",10.7104
"01/19/2010",11.1968
"01/20/2010",10.6377
"01/21/2010",10.4903
"01/22/2010",10.3014
"01/25/2010",10.2820
"01/26/2010",10.2645
"01/27/2010",10.3233
"01/28/2010",10.3091
"01/29/2010",10.2230
"02/01/2010",10.3565
"02/02/2010",10.5430
"02/03/2010",10.4605
"02/04/2010",10.1244
"02/05/2010",10.1056
"02/08/2010",10.1363
"02/09/2010",10.2733
"02/10/2010",10.2030
"02/11/2010",10.3478
"02/12/2010",10.3679
"02/16/2010",10.9992
"02/17/2010",10.7052
"02/18/2010",10.7369
"02/19/2010",10.7603
"02/22/2010",10.7129
"02/23/2010",10.6186
"02/24/2010",10.7072
"02/25/2010",10.7537
"02/26/2010",10.7204
"03/01/2010",10.9543
"03/02/2010",10.9631
"03/03/2010",10.8989
"03/04/2010",11.0295
"03/05/2010",11.2059
"03/08/2010",11.2757
"03/09/2010",11.2654
"03/10/2010",11.3407
"03/11/2010",11.4107
"03/12/2010",11.4476
"03/15/2010",11.3850
"03/16/2010",11.5116
"03/17/2010",11.6617
"03/18/2010",11.6202
"03/19/2010",11.5508
"03/22/2010",11.7346
"03/23/2010",11.9278
"03/24/2010",11.8107
"03/25/2010",11.7683
"03/26/2010",11.8488
"03/29/2010",11.9122
"03/30/2010",11.9363
"03/31/2010",11.8615
"04/01/2010",11.9054
"04/05/2010",12.5777
"04/06/2010",12.1335
"04/07/2010",12.1335
"04/08/2010",12.2832
"04/09/2010",12.3320
"04/12/2010",12.3641
"04/13/2010",12.4211
"04/14/2010",12.5208
"04/15/2010",12.5384
"04/16/2010",12.4401
"04/19/2010",12.3895
"04/20/2010",12.5075
"04/21/2010",12.5399
"04/22/2010",12.8322
"04/23/2010",12.8673
"04/26/2010",12.9215
"04/27/2010",12.6027
"04/28/2010",12.4573
"04/29/2010",12.8549
"04/30/2010",12.6183
"05/03/2010",12.5430
"05/04/2010",12.1210
"05/05/2010",12.0138
"05/06/2010",11.6579
"05/07/2010",11.3754
"05/10/2010",11.9353
"05/11/2010",12.0294
"05/12/2010",12.3031
"05/13/2010",12.1437
"05/14/2010",11.8928
"05/17/2010",12.0068
"05/18/2010",11.8534
"05/19/2010",11.7612
"05/20/2010",11.3145
"05/21/2010",11.4827
"05/24/2010",11.4407
"05/25/2010",11.4518
"05/26/2010",11.4467
"05/27/2010",11.8446
"05/28/2010",11.7765
"06/01/2010",12.4978
"06/02/2010",12.3523
"06/03/2010",12.4935
"06/04/2010",11.5070
"06/07/2010",11.2593
"06/08/2010",11.3340
"06/09/2010",11.3905
"06/10/2010",11.6701
"06/11/2010",11.8061
"06/14/2010",11.8733
"06/15/2010",12.0819
"06/16/2010",12.0690
"06/17/2010",12.0973
"06/18/2010",12.1214
"06/21/2010",11.9125
"06/22/2010",11.6745
"06/23/2010",11.6961
"06/24/2010",11.5091
"06/25/2010",11.5242
"06/28/2010",11.4823
"06/29/2010",11.0614
"06/30/2010",10.9534
"07/01/2010",10.9865
"07/02/2010",10.9198
"07/06/2010",10.8231
"07/07/2010",11.2202
"07/08/2010",11.3288
"07/09/2010",11.4516
"07/12/2010",11.4449
"07/13/2010",11.7268
"07/14/2010",11.7583
"07/15/2010",11.7393
"07/16/2010",11.4246
"07/19/2010",11.4238
"07/20/2010",11.6770
"07/21/2010",11.5212
"07/22/2010",11.7715
"07/23/2010",11.9580
"07/26/2010",12.1839
"07/27/2010",12.0599
"07/28/2010",11.9382
"07/29/2010",11.8191
"07/30/2010",11.8086
"08/02/2010",11.9994
"08/03/2010",11.9577
"08/04/2010",12.1026
"08/05/2010",12.0395
"08/06/2010",11.9806
"08/09/2010",12.1184
"08/10/2010",12.0309
"08/11/2010",11.7057
"08/12/2010",11.7377
"08/13/2010",11.6142
"08/16/2010",11.6774
"08/17/2010",11.8539
"08/18/2010",11.8551
"08/19/2010",11.6221
"08/20/2010",11.6393
"08/23/2010",11.4877
"08/24/2010",11.2559
"08/25/2010",11.3529
"08/26/2010",11.2523
"08/27/2010",11.4176
"08/30/2010",11.1964
"08/31/2010",11.2300
"09/01/2010",11.5284
"09/02/2010",11.7579
"09/03/2010",11.8655
"09/07/2010",15.0392
"09/08/2010",14.6623
"09/09/2010",11.8890
"09/10/2010",11.9835
"09/13/2010",12.1716
"09/14/2010",12.2050
"09/15/2010",12.3660
"09/16/2010",12.3295
"09/17/2010",12.3649
"09/20/2010",12.5304
"09/21/2010",12.4599
"09/22/2010",12.3390
"09/23/2010",12.2188
"09/24/2010",12.5266
"09/27/2010",12.5728
"09/28/2010",12.6786
"09/29/2010",12.6663
"09/30/2010",12.6495
"10/01/2010",12.7178
"10/04/2010",12.6121
"10/05/2010",12.8577
"10/06/2010",12.7972
"10/07/2010",12.8242
"10/08/2010",12.9727
"10/11/2010",12.9941
"10/12/2010",13.0063
"10/13/2010",13.0578
"10/14/2010",12.8293
"10/15/2010",12.8265
"10/18/2010",12.8709
"10/19/2010",12.6366
"10/20/2010",12.7496
"10/21/2010",12.7404
"10/22/2010",12.9116
"10/25/2010",12.9662
"10/26/2010",12.9055
"10/27/2010",12.7822
"10/28/2010",12.8325
"10/29/2010",12.9149
"11/01/2010",12.9181
"11/02/2010",13.0815
"11/03/2010",13.1239
"11/04/2010",13.2769
"11/05/2010",13.3604
"11/08/2010",13.3834
"11/09/2010",13.2410
"11/10/2010",13.3438
"11/11/2010",13.4021
"11/12/2010",13.2258
"11/15/2010",13.2353
"11/16/2010",13.0541
"11/17/2010",13.1280
"11/18/2010",13.1919
"11/19/2010",13.2859
"11/22/2010",13.3717
"11/23/2010",13.2596
"11/24/2010",13.4453
"11/26/2010",13.9016
"11/29/2010",13.8752
"11/30/2010",13.2257
"12/01/2010",13.4283
"12/02/2010",13.5031
"12/03/2010",13.5753
"12/06/2010",13.5435
"12/07/2010",13.6020
"12/08/2010",13.5896
"12/09/2010",13.5703
"12/10/2010",13.6684
"12/13/2010",13.5519
"12/14/2010",13.5609
"12/15/2010",13.5147
"12/16/2010",13.6912
"12/17/2010",13.7318
"12/20/2010",13.8042
"12/21/2010",13.8063
"12/22/2010",13.8408
"12/23/2010",13.8245
"12/27/2010",14.3166
"12/28/2010",14.2596
"12/29/2010",14.3092
"12/30/2010",13.7680
"12/31/2010",13.6712
"01/03/2011",13.8028
"01/04/2011",13.6782
"01/05/2011",13.7579
"01/06/2011",13.6872
"01/07/2011",13.6556
"01/10/2011",13.6863
"01/11/2011",13.6718
"01/12/2011",13.7705
"01/13/2011",13.7482
"01/14/2011",13.8928
"01/18/2011",14.4341
"01/19/2011",13.6569
"01/20/2011",13.5961
"01/21/2011",13.5023
"01/24/2011",13.5864
"01/25/2011",13.5602
"01/26/2011",13.7410
"01/27/2011",13.9322
"01/28/2011",13.6345
"01/31/2011",13.6524
"02/01/2011",13.8508
"02/02/2011",13.9132
"02/03/2011",14.1181
"02/04/2011",14.2390
"02/07/2011",14.3383
"02/08/2011",14.4779
"02/09/2011",14.5216
"02/10/2011",14.5138
"02/11/2011",14.6332
"02/14/2011",14.6673
"02/15/2011",14.6194
"02/16/2011",14.7411
"02/17/2011",14.7445
"02/18/2011",14.8006
"02/22/2011",15.6662
"02/23/2011",15.3592
"02/24/2011",14.8401
"02/25/2011",14.3892
"02/28/2011",14.3393
"03/01/2011",14.0659
"03/02/2011",14.1839
"03/03/2011",14.3523
"03/04/2011",14.2967
"03/07/2011",14.1818
"03/08/2011",14.3630
"03/09/2011",14.3637
"03/10/2011",14.1246
"03/11/2011",14.2011
"03/14/2011",14.0410
"03/15/2011",13.9331
"03/16/2011",13.7565
"03/17/2011",13.8369
"03/18/2011",13.8678
"03/21/2011",14.1318
"03/22/2011",14.0738
"03/23/2011",14.1680
"03/24/2011",14.3691
"03/25/2011",14.5227
"03/28/2011",14.4587
"03/29/2011",14.5739
"03/30/2011",14.7178
"03/31/2011",14.6405
"04/01/2011",14.7015
"04/04/2011",14.7002
"04/05/2011",14.7527
"04/06/2011",14.7442
"04/07/2011",14.7228
"04/08/2011",14.5810
"04/11/2011",14.5404
"04/12/2011",14.5105
"04/13/2011",14.5663
"04/14/2011",14.6252
"04/15/2011",14.7312
"04/18/2011",14.6306
"04/19/2011",14.6385
"04/20/2011",14.8496
"04/21/2011",14.8835
"04/25/2011",16.0473
"04/26/2011",16.0797
"04/27/2011",16.2490
"04/28/2011",15.0730
"04/29/2011",15.1245
"05/02/2011",15.0695
"05/03/2011",14.9701
"05/04/2011",14.9769
"05/05/2011",15.0955
"05/06/2011",15.0984
"05/09/2011",15.1991
"05/10/2011",15.5021
"05/11/2011",15.3249
"05/12/2011",15.5381
"05/13/2011",15.4510
"05/16/2011",15.2287
"05/17/2011",15.2394
"05/18/2011",15.4050
"05/19/2011",15.5305
"05/20/2011",15.3838
"05/23/2011",15.2652
"05/24/2011",15.1397
"05/25/2011",15.2031
"05/26/2011",15.3341
"05/27/2011",15.3501
"05/31/2011",16.7147
"06/01/2011",15.7191
"06/02/2011",15.3210
"06/03/2011",15.1469
"06/06/2011",14.4171
"06/07/2011",14.4267
"06/08/2011",14.2808
"06/09/2011",14.3973
"06/10/2011",14.2107
"06/13/2011",14.2256
"06/14/2011",14.4843
"06/15/2011",14.2618
"06/16/2011",14.2811
"06/17/2011",14.3479
"06/20/2011",14.5273
"06/21/2011",14.8000
"06/22/2011",14.6615
"06/23/2011",14.7614
"06/24/2011",14.6482
"06/27/2011",14.7718
"06/28/2011",15.0357
"06/29/2011",15.0668
"06/30/2011",15.1496
"07/01/2011",15.4378
"07/05/2011",16.2382
"07/06/2011",15.7077
"07/07/2011",15.9081
"07/08/2011",15.8857
"07/11/2011",15.5935
"07/12/2011",15.5690
"07/13/2011",15.6599
"07/14/2011",15.5309
"07/15/2011",15.5601
"07/18/2011",15.4164
"07/19/2011",15.7591
"07/20/2011",15.6690
"07/21/2011",15.8347
"07/22/2011",15.9133
"07/25/2011",15.8021
"07/26/2011",15.7939
"07/27/2011",15.4488
"07/28/2011",15.4449
"07/29/2011",15.3575
"08/01/2011",15.3176
"08/02/2011",14.9164
"08/03/2011",15.1361
"08/04/2011",14.3723
"08/05/2011",14.3358
"08/08/2011",13.3397
"08/09/2011",13.9320
"08/10/2011",13.4463
"08/11/2011",14.0713
"08/12/2011",14.2977
"08/15/2011",14.5893
"08/16/2011",14.3512
"08/17/2011",14.3078
"08/18/2011",13.5849
"08/19/2011",13.4006
"08/22/2011",13.4343
"08/23/2011",14.0164
"08/24/2011",14.1416
"08/25/2011",13.7841
"08/26/2011",14.1208
"08/29/2011",14.6027
"08/30/2011",14.6805
"08/31/2011",14.6419
"09/01/2011",14.5086
"09/02/2011",14.1241
"09/06/2011",14.8239
"09/07/2011",14.5605
"09/08/2011",14.4238
"09/09/2011",13.9128
"09/12/2011",14.0196
"09/13/2011",14.1872
"09/14/2011",14.3965
"09/15/2011",14.4572
"09/16/2011",14.4986
"09/19/2011",14.4899
"09/20/2011",14.3455
"09/21/2011",14.0388
"09/22/2011",13.6356
"09/23/2011",13.7768
"09/26/2011",14.0109
"09/27/2011",14.1238
"09/28/2011",13.7852
"09/29/2011",13.7066
"09/30/2011",13.3759
"10/03/2011",12.8933
"10/04/2011",13.3695
"10/05/2011",13.5647
"10/06/2011",13.8542
"10/07/2011",13.7359
"10/10/2011",14.1305
"10/11/2011",14.1742
"10/12/2011",14.3483
"10/13/2011",14.3650
"10/14/2011",14.5053
"10/17/2011",14.1332
"10/18/2011",14.4844
"10/19/2011",14.2773
"10/20/2011",14.3241
"10/21/2011",14.6430
"10/24/2011",14.9062
"10/25/2011",14.6277
"10/26/2011",14.6488
"10/27/2011",15.2654
"10/28/2011",15.1980
"10/31/2011",14.8863
"11/01/2011",14.5278
"11/02/2011",14.6877
"11/03/2011",15.1298
"11/04/2011",15.1140
"11/07/2011",15.1300
"11/08/2011",15.2257
"11/09/2011",14.6299
"11/10/2011",14.7680
"11/11/2011",15.0954
"11/14/2011",14.9442
"11/15/2011",15.1017
"11/16/2011",14.9170
"11/17/2011",14.7187
"11/18/2011",14.7010
"11/21/2011",14.4022
"11/22/2011",14.2932
"11/23/2011",14.0011
"11/25/2011",14.4747
"11/28/2011",14.2608
"11/29/2011",14.1848
"11/30/2011",14.7443
"12/01/2011",14.7278
"12/02/2011",14.8653
"12/05/2011",15.0298
"12/06/2011",14.9532
"12/07/2011",14.9855
"12/08/2011",14.5810
"12/09/2011",14.8318
"12/12/2011",14.7562
"12/13/2011",14.4118
"12/14/2011",14.1842
"12/15/2011",14.3988
"12/16/2011",14.4679
"12/19/2011",14.2525
"12/20/2011",14.6330
"12/21/2011",14.7497
"12/22/2011",14.8184
"12/23/2011",14.9956
"12/27/2011",15.0090
"12/28/2011",14.8089
"12/29/2011",14.9340
"12/30/2011",14.8484
"01/03/2012",14.8419
"01/04/2012",14.8474
"01/05/2012",14.8527
"01/06/2012",14.5513
"01/09/2012",14.5571
"01/10/2012",14.5592
"01/11/2012",14.5595
"01/12/2012",14.5604
"01/13/2012",14.5590
"01/17/2012",14.8668
"01/18/2012",14.8711
"01/19/2012",14.8747
"01/20/2012",14.8795
"01/23/2012",14.8761
"01/24/2012",14.8745
"01/25/2012",14.8807
"01/26/2012",14.8852
"01/27/2012",14.8857
"01/30/2012",14.8864
"01/31/2012",14.8917
"02/01/2012",14.8982
"02/02/2012",14.8943
"02/03/2012",14.9054
"02/06/2012",14.9039
"02/07/2012",14.9039
"02/08/2012",14.9078
"02/09/2012",14.9128
"02/10/2012",14.9061
"02/13/2012",14.9116
"02/14/2012",14.9078
"02/15/2012",14.9382
"02/16/2012",14.9413
"02/17/2012",14.9538
"02/21/2012",14.9514
"02/22/2012",14.9564
"02/23/2012",14.9691
"02/24/2012",14.9542
"02/27/2012",14.9542
"02/28/2012",14.9585
"02/29/2012",14.9595
"03/01/2012",14.9605
"03/02/2012",14.9554
"03/05/2012",14.9521
"03/06/2012",14.9478
"03/07/2012",14.9554
"03/08/2012",14.9645
"03/09/2012",14.9698
"03/12/2012",14.9643
"03/13/2012",14.9746
"03/14/2012",14.6117
"03/15/2012",14.6119
"03/16/2012",14.6083
"03/19/2012",14.6126
"03/20/2012",14.6117
"03/21/2012",14.6110
"03/22/2012",14.6131
"03/23/2012",14.6143
"03/26/2012",14.6186
"03/27/2012",14.6165
"03/28/2012",14.6134
"03/29/2012",14.6124
"03/30/2012",14.6146
"04/02/2012",14.7412
"04/03/2012",14.7712
"04/04/2012",14.6337
"04/05/2012",14.7364
"04/09/2012",15.4239
"04/10/2012",14.7575
"04/11/2012",14.8540
"04/12/2012",15.1235
"04/13/2012",15.0294
"04/16/2012",14.3720
"04/17/2012",14.5858
"04/18/2012",14.5968
"04/19/2012",14.5096
"04/20/2012",14.6515
"04/23/2012",14.3811
"04/24/2012",14.3563
"04/25/2012",14.6333
"04/26/2012",14.8462
"04/27/2012",14.9181
"04/30/2012",14.8573
"05/01/2012",14.8761
"05/02/2012",15.1410
"05/03/2012",14.9040
"05/04/2012",14.6090
"05/07/2012",14.6800
"05/08/2012",14.5494
"05/09/2012",14.4286
"05/10/2012",14.4804
"05/11/2012",14.4694
"05/14/2012",14.3312
"05/15/2012",14.3749
"05/16/2012",14.3639
"05/17/2012",13.9557
"05/18/2012",13.9157
"05/21/2012",14.1425
"05/22/2012",14.2200
"05/23/2012",14.2900
"05/24/2012",14.3729
"05/25/2012",14.4070